Flag for Germany Weather past 2 weeks in Dillenburg, Hesse, Germany

Now
77 °F

Passing clouds.


Feels Like: 78 °F
Forecast: 59 / 83 °F
Wind: 5 mph from Southeast

Location: Hessen

Current Time: Jun 30, 2015 at 7:32:18 PM

Latest Report: Jun 30, 2015 at 6:50 PM


Visibility: N/A

Pressure: 30.21 "Hg

Humidity: 42%

Dew point: 52 °F

Location of DillenburgLocation

Historic Weather in Dillenburg — Graph

°F

Dillenburg temperature yesterday

Maximum temperature yesterday: 72 °F (at 12:20 PM)
Minimum temperature yesterday: 64 °F (at 7:50 AM)
Average temperature yesterday: 69 °F

Past Weeks' High & Low Weather Summary

 TemperatureHumidityPressure
High81 °F (Jun 30, 4:50 PM)100% (Jun 18, 7:50 AM)30.27 "Hg (Jun 18, 7:50 AM)
Low45 °F (Jun 19, 6:20 AM)36% (Jun 30, 2:20 PM)29.68 "Hg (Jun 22, 8:50 PM)
Average58 °F75%30.10 "Hg
* Reported Jun 15 6:20 PM — Jun 30 6:20 PM, Dillenburg, Weather by CustomWeather, © 2015

Note: Actual official high and low records may vary slightly from our data, if they occured in-between our weather recording intervals... More about our weather records

Advertising

Dillenburg weather history for previous 24 hours

 ConditionsComfort  
Time TempWeatherWind HumidityBarometerVisibility
6:20 PM
Tue, Jun 30
79 °FSunny.6 mph42%30.21 "Hg10 mi
5:50 PM79 °FPassing clouds.6 mph42%30.21 "HgN/A
4:50 PM81 °FSunny.3 mph39%30.21 "Hg10 mi
4:20 PM79 °FSunny.5 mph37%30.21 "Hg10 mi
3:50 PM79 °FPassing clouds.5 mph39%30.21 "HgN/A
2:50 PM77 °FSunny.2 mph39%30.21 "Hg10 mi
2:20 PM77 °FSunny.5 mph36%30.21 "Hg10 mi
1:50 PM75 °FPassing clouds.5 mph39%30.21 "HgN/A
1:20 PM75 °FSunny.3 mph44%30.24 "Hg10 mi
12:50 PM73 °FSunny.5 mph47%30.24 "Hg10 mi
12:20 PM73 °FSunny.3 mph50%30.24 "Hg10 mi
11:50 AM72 °FMild.3 mph57%30.21 "HgN/A
10:50 AM70 °FMild.5 mph53%30.24 "HgN/A
10:20 AM68 °FPassing clouds.6 mph60%30.24 "HgN/A
9:50 AM68 °FPassing clouds.6 mph60%30.24 "HgN/A
9:20 AM68 °FPassing clouds.6 mph60%30.24 "HgN/A
8:50 AM68 °FSunny.2 mph60%30.24 "Hg10 mi
8:20 AM66 °FSunny.3 mph64%30.24 "Hg10 mi
7:50 AM64 °FSunny.2 mph64%30.24 "Hg10 mi
9:50 PM
Mon, Jun 29
64 °FSunny.5 mph60%30.21 "Hg10 mi
9:20 PM64 °FSunny.5 mph64%30.21 "Hg10 mi
8:50 PM66 °FSunny.6 mph60%30.21 "Hg10 mi
8:20 PM68 °FSunny.8 mph56%30.21 "Hg10 mi
7:50 PM70 °FSunny.9 mph53%30.21 "Hg10 mi
7:20 PM72 °FSunny.8 mph53%30.21 "Hg10 mi
Weather by CustomWeather, © 2015

See weather overviewHow to use our weather pages